Regional Weather Roundup
Issued by NWS

Home | Current Version | Previous Version | Graphics & Text | Print | Product List | Glossary On
Versions: 1 2 3 4 5 6 7 8 9 10 11 12 13 14 15 16 17 18 19 20 21 22 23 24 25 26 27 28 29 30 31 32 33 34 35 36 37 38 39 40 41 42 43 44 45 46 47 48 49 50
000
ASUS43 KDMX 212101
RWRIA

WEATHER ROUNDUP FOR IOWA
NATIONAL WEATHER SERVICE DES MOINES IA
400 PM CDT SAT APR 21 2018

NOTE: "FAIR" INDICATES FEW OR NO CLOUDS BELOW 12,000 FEET WITH NO
SIGNIFICANT WEATHER AND/OR OBSTRUCTIONS TO VISIBILITY.

* - THESE STATIONS ARE NOT NWS STATIONS...THUS NOT UNDER NWS
QUALITY CONTROL.  THEY ALSO DO NOT REPORT WEATHER SUCH
AS PRECIPITATION OR FOG.

IAZ001>003-012>014-020>022-031>034-043>046-212200-
   NORTHWEST IOWA

CITY           SKY/WX    TMP DP  RH WIND       PRES   REMARKS
CARROLL *      CLOUDY    55  28  35 E10       30.26F
CHEROKEE *     CLOUDY    52  38  59 E12       30.29F
DENISON *      CLOUDY    55  27  33 E9        30.27F
LE MARS *      CLOUDY    55  34  44 E12G18    30.28F
ORANGE CITY *  MOSUNNY   57  34  41 E10       30.29F
SHELDON *      CLOUDY    54  34  47 E12G20    30.28F
SIOUX CITY     CLOUDY    55  30  38 E10       30.26F
SPENCER        CLOUDY    47  35  63 E12       30.31F
STORM LAKE *   PTSUNNY   50  41  71 NE15      30.28F
$$

IAZ055>058-069>071-079>083-090>094-212200-
   SOUTHWEST IOWA

CITY           SKY/WX    TMP DP  RH WIND       PRES   REMARKS
ATLANTIC *     CLOUDY    55  27  33 E9        30.25R
AUDUBON *      CLOUDY    54  25  32 CALM      30.26F
CLARINDA *     CLOUDY    57  27  30 E8        30.23F
COUNCIL BLFS * CLOUDY    54  32  43 SW5       30.25R
CRESTON *      CLOUDY    57  23  26 E14       30.24F
HARLAN  *      CLOUDY    54  28  37 E6        30.28F
LAMONI         CLOUDY    55  30  38 E8        30.22S
RED OAK *      CLOUDY    57  30  35 E13G20    30.24S
SHENANDOAH *   CLOUDY    57  32  38 NE13G21   30.21F
$$

IAZ047>049-059>061-072>074-084-212200-
   CENTRAL IOWA

CITY           SKY/WX    TMP DP  RH WIND       PRES   REMARKS
AMES           CLOUDY    57  25  29 E8        30.27F
ANKENY *       CLOUDY    57  27  30 SE8       30.28S
BOONE *        CLOUDY    57  25  28 SE16      30.26F
CHARITON *     CLOUDY    57  27  30 E12       30.24F
DES MOINES     CLOUDY    58  26  29 SE7       30.27F
GRINNELL*      CLOUDY    58  21  23 E15       30.28F
KNOXVILLE *    PTSUNNY   59  21  23 SE9       30.25F
MARSHALLTOWN   MOSUNNY   59  26  28 SE14      30.28F
NEWTON *       CLOUDY    59  25  27 E10       30.27F
PELLA *        PTSUNNY   59  21  23 SE8       30.28S
$$

IAZ004>006-015-016-023>025-035-036-212200-
   NORTH CENTRAL IOWA

CITY           SKY/WX    TMP DP  RH WIND       PRES   REMARKS
ALGONA *       CLOUDY    48  34  57 NE13      30.32F
CLARION *      CLOUDY    59  34  38 E16       30.29F
ESTHERVILLE    CLOUDY    40  33  76 NE9       30.33F WCI  34
FORT DODGE *   MOSUNNY   60  28  29 S10       30.28F
MASON CITY     CLOUDY    49  40  71 NE10      30.33F
FOREST CITY *  CLOUDY    50  34  53 NE6       30.33F
WEBSTER CITY * PTSUNNY   61  27  27 SE15      30.26F
IOWA FALLS *   FAIR      61  29  29 E9        30.30F
$$

IAZ007>011-017>019-026>030-037>042-050>054-066-212200-
   NORTHEAST IOWA

CITY           SKY/WX    TMP DP  RH WIND       PRES   REMARKS
CEDAR RAPIDS   FAIR      60  27  28 E17       30.29F
CHARLES CITY * FAIR      59  36  41 E12       30.32F
CLINTON *      FAIR      57  33  40 E16       30.32F
DECORAH *      FAIR      54  32  43 E8        30.34F
DUBUQUE        FAIR      55  29  36 SE14G20   30.33F
MONTICELLO *   FAIR      59  28  31 E10G17    30.31F
OELWEIN *      PTSUNNY   55  32  41 E7G17     30.33F
WATERLOO       FAIR      59  28  30 E8G18     30.30F
$$

IAZ064-065-067-068-078-212200-
   EAST CENTRAL IOWA

CITY           SKY/WX    TMP DP  RH WIND       PRES   REMARKS
DAVENPORT      FAIR      59  24  26 E17       30.32F
IOWA CITY      FAIR      60  26  27 E9        30.30F
MT. PLEASANT * CLOUDY    61  23  23 E16       30.27S
MUSCATINE *    FAIR      61  27  27 E12G20    30.29F
QUAD CITIES    FAIR      60  27  28 E14       30.29F
$$

IAZ062-063-075>077-085>089-095>099-212200-
   SOUTHEAST IOWA

CITY           SKY/WX    TMP DP  RH WIND       PRES   REMARKS
BURLINGTON     CLOUDY    63  25  23 E13       30.26F
FAIRFIELD *    CLOUDY    61  21  21 E14       30.26F
FORT MADISON * CLOUDY    61  27  27 E13       30.27R
KEOKUK *       CLOUDY    61  27  27 E14G20    30.24F
OSKALOOSA *    FAIR      59  22  24 E14       30.27S
CENTERVILLE *    N/A     57  27  30 CALM      30.25F
OTTUMWA        CLOUDY    60  24  25 E15       30.25F
WASHINGTON *   CLOUDY    61  23  23 E14G23    30.29R
$$

ABBREVIATIONS USED IN REMARKS
   TC - TEMPERATURES IN CELSIUS
  WCI - WIND CHILL INDEX
   HX - HEAT INDEX
  VSB - VISIBILITY
$$




USA.gov is the U.S. government's official web portal to all federal, state and local government web resources and services.